Terug naar catalogus

COSMOS 1394

ActiefNavigatieLEO
NORAD 13381·PAYLOAD·🇷🇺 Russia

Gelanceerd Jul 21, 1982 vanaf Plesetsk Cosmodrome

Loading…

Volgende Passages (komende 24 uur)

TLE

VersSource: Space-Track

Epoch: Sep 14, 2026, 08:25 UTC

1 13381U 82073G   26257.35069775 -.00000025  00000-0 -65939-4 0  9995
2 13381  74.0165  31.7267 0013566  27.7013   0.6542 12.45193140  6933

Volg COSMOS 1394 in realtime met AllMySat

Download on the App Store